{"data":{"norad_id":58062,"intl_designator":"2023-158M","name":"STARLINK-30588","alt_names":[],"object_type":"PAYLOAD","status":"ACTIVE","operator":null,"country":"US","launch_date":"2023-10-13","launch_site_code":"AFETR","launch_vehicle":null,"mission":null,"orbit_class":"UNKNOWN","rcs_meters":null,"size_class":null,"mass_kg":null,"dimensions":null,"purposes":["comms"],"wikipedia_slug":null,"has_3d_model":false,"image_url":null,"decayed_at":null,"tle_current":{"epoch":"2026-09-20T13:30:36.915264Z","epoch_age_seconds":132969,"freshness":"FRESH","line1":"1 58062U 23158M   26263.56292726  .00000653  00000+0  33264-4 0  9993","line2":"2 58062  43.0011   6.4742 0001279 253.6559 106.4152 15.27582367163374","mean_motion":15.27582367,"eccentricity":0.0001279,"inclination_deg":43.0011,"raan_deg":6.4742,"arg_perigee_deg":253.6559,"mean_anomaly_deg":106.4152,"bstar":3.3264e-5,"rev_number":16337,"period_min":94.266602646638,"perigee_km":482.16446360411,"apogee_km":483.91955319446,"semimajor_km":6861.1790083993,"source":"CELESTRAK","updated_at":"2026-09-21T09:00:33.779174Z"}}}